Home   Weather   Galway   Past weeks

Flag for Ireland Past Weather in Galway, Ireland — Yesterday and Last 2 Weeks

Now
50 °F

Passing clouds.


Feels Like: 47 °F
Forecast: N/A
Wind: 8 mph from Southwest

Location: Shannon Airport

Current Time: Dec 10, 2016 at 4:40:19 pm

Latest Report: Dec 10, 2016 at 4:00 pm


Visibility: N/A

Pressure: 30.12 "Hg

Humidity: 88%

Dew Point: 46 °F

Location of GalwayLocation

Past Weather in Galway — Graph

°F

Galway Temperature Yesterday

Maximum temperature yesterday: 57 °F (at 2:00 am)
Minimum temperature yesterday: 48 °F (at 10:30 pm)
Average temperature yesterday: 54 °F

High & Low Weather Summary for the Past Weeks

 TemperatureHumidityPressure
High59 °F (Dec 7, 7:00 am)100% (Nov 25, 3:30 pm)30.60 "Hg (Nov 25, 3:30 pm)
Low27 °F (Dec 1, 2:30 am)66% (Dec 4, 11:30 am)29.86 "Hg (Dec 7, 5:30 am)
Average44 °F89%30.22 "Hg
* Reported Nov 25 3:00 pm — Dec 10 3:30 pm, Galway, Weather by CustomWeather, © 2016

Note: Actual official high and low records may vary slightly from our data, if they occured in-between our weather recording intervals... More about our weather records

Advertising

Galway Weather History for the Previous 24 Hours

Scroll right to see more
 ConditionsComfort  
Time TempWeatherWind HumidityBarometerVisibility
3:30 pm
Sat, Dec 10
50 °FPassing clouds.9 mph88%30.09 "HgN/A
3:00 pm50 °FPassing clouds.10 mph88%30.09 "HgN/A
2:30 pm50 °FPassing clouds.8 mph88%30.09 "HgN/A
2:00 pm50 °FPassing clouds.10 mph88%30.09 "HgN/A
1:30 pm48 °FScattered clouds.8 mph94%30.09 "HgN/A
1:00 pm48 °FPartly sunny.6 mph94%30.09 "HgN/A
12:30 pm48 °FSprinkles. Partly sunny.7 mph94%30.12 "Hg4 mi
12:00 pm48 °FBroken clouds.7 mph94%30.12 "HgN/A
11:30 am48 °FPartly sunny.8 mph94%30.12 "HgN/A
11:00 am48 °FPartly sunny.7 mph87%30.12 "HgN/A
10:30 am46 °FPartly sunny.5 mph93%30.12 "HgN/A
10:00 am45 °FBroken clouds.5 mph100%30.09 "HgN/A
9:30 am45 °FBroken clouds.5 mph93%30.09 "HgN/A
9:00 am45 °FBroken clouds.8 mph93%30.09 "HgN/A
8:30 am45 °FPartly cloudy.6 mph93%30.09 "HgN/A
8:00 am45 °FPartly cloudy.7 mph93%30.07 "HgN/A
7:30 am45 °FPassing clouds.8 mph93%30.07 "HgN/A
7:00 am45 °FPassing clouds.7 mph93%30.07 "HgN/A
6:30 am45 °FPassing clouds.7 mph93%30.07 "HgN/A
6:00 am45 °FPassing clouds.7 mph93%30.07 "HgN/A
5:30 am46 °FPassing clouds.8 mph87%30.07 "HgN/A
5:00 am45 °FPassing clouds.7 mph93%30.07 "HgN/A
4:30 am46 °FPassing clouds.6 mph87%30.07 "HgN/A
4:00 am46 °FPassing clouds.6 mph87%30.07 "HgN/A
3:30 am46 °FPassing clouds.7 mph93%30.07 "HgN/A
3:00 am48 °FPassing clouds.10 mph87%30.07 "HgN/A
2:30 am46 °FPassing clouds.9 mph93%30.07 "HgN/A
2:00 am46 °FPassing clouds.6 mph93%30.07 "HgN/A
1:30 am46 °FPassing clouds.7 mph93%30.07 "HgN/A
1:00 am46 °FPassing clouds.8 mph93%30.07 "HgN/A
12:30 am48 °FPassing clouds.6 mph87%30.07 "HgN/A
12:00 am48 °FPassing clouds.7 mph87%30.07 "HgN/A
11:30 pm
Fri, Dec 9
48 °FPassing clouds.6 mph87%30.07 "HgN/A
11:00 pm48 °FPassing clouds.6 mph94%30.04 "HgN/A
10:30 pm48 °FPassing clouds.8 mph94%30.04 "HgN/A
10:00 pm50 °FPassing clouds.5 mph88%30.04 "HgN/A
9:30 pm50 °FPartly cloudy.7 mph88%30.04 "HgN/A
9:00 pm52 °FPartly cloudy.8 mph82%30.04 "HgN/A
8:30 pm52 °FPartly cloudy.9 mph82%30.04 "HgN/A
8:00 pm52 °FPassing clouds.9 mph82%30.01 "HgN/A
7:30 pm52 °FPassing clouds.7 mph82%30.01 "HgN/A
7:00 pm54 °FPassing clouds.12 mph77%30.01 "HgN/A
6:30 pm52 °FPassing clouds.12 mph82%29.98 "HgN/A
6:00 pm54 °FPassing clouds.12 mph77%30.01 "HgN/A
5:30 pm54 °FPassing clouds.12 mph82%29.98 "HgN/A
5:00 pm54 °FPartly cloudy.10 mph82%29.98 "HgN/A
4:30 pm54 °FPartly cloudy.9 mph82%29.98 "HgN/A
4:00 pm55 °FBroken clouds.10 mph77%29.98 "HgN/A
Weather by CustomWeather, © 2016

See weather overviewHow to use our weather pages